Location: Unspecified
(51.0950°N, 12.9690°E)
Time: 11:55:57
(UTC+00:00)

ATLAS 3B R/B - Pass Details

Date: 23 May 2022
Orbit: 976 x 1218 km, 63.8° (Epoch: 20 June)

Event Time Altitude Azimuth Distance (km) Brightness Sun altitude
Rises 23:19:46 0° 312° (NW) 3,980 6.3 -18.1°
Reaches altitude 10° 23:22:55 10° 300° (WNW) 3,054 5.4 -18.1°
Maximum altitude 23:28:36 25° 249° (WSW) 2,180 4.1 -18.0°
Enters shadow 23:31:21 20° 219° (SW) 2,434 4.1 -17.9°
